Location: York
(31.8935°S, 116.7682°E)
Time: 06:08:00
(UTC+08:00)

X-37B - Pass Details

Date: 22 May 2021
Orbit: 386 x 389 km, 45.0° (Epoch: 10 June)

Event Time Altitude Azimuth Distance (km) Brightness Sun altitude
Exits shadow 04:37:23 10° 115° (ESE) 1,404 4.1 -29.7°
Drops below altitude 10° 04:37:23 10° 115° (ESE) 1,407 4.1 -29.7°
Sets 04:40:01 0° 93° (E) 2,279 5.7 -29.1°
